Regional Weather Roundup
Issued by NWS Charleston, SC

Current Version | Previous Version | Graphics & Text | Print | Product List | Glossary On
Versions: 1 2 3 4 5 6 7 8 9 10 11 12 13 14 15 16 17 18 19 20 21 22 23 24 25 26 27 28 29 30 31 32 33 34 35 36 37 38 39 40 41 42 43 44 45 46 47 48 49 50
000 ASUS42 KCHS 220225 RWRCHS REGIONAL WEATHER ROUNDUP NATIONAL WEATHER SERVICE CHARLESTON SC 1000 PM EDT TUE OCT 21 2014 NOTE: "FAIR" INDICATES FEW OR NO CLOUDS BELOW 12,000 FEET WITH NO SIGNIFICANT WEATHER AND/OR OBSTRUCTIONS TO VISIBILITY. NOT ALL STATIONS ARE QUALITY CONTROLLED BY THE NATIONAL WEATHER SERVICE. USE DATA WITH CAUTION...ESPECIALLY DEWPOINT OBSERVATIONS. SCZ027-030-031-034>040-042>050-220300- ...SOUTH CAROLINA... CITY SKY/WX TMP DP RH WIND PRES REMARKS N CHARLESTON FAIR 67 59 75 W6 29.93R WATERFRONT PRK N/A 68 N/A N/A SW3 N/A FORT JOHNSON NOT AVBL JOHNS ISLAND CLEAR 66 63 88 CALM 29.93R PINOPOLIS NOT AVBL MONCKS CORNER FAIR 59 57 94 CALM 29.92R SUMMERVILLE FAIR 59 59 100 CALM 29.93S BEAUFORT MCAS CLEAR 64 57 78 W7 29.93R BEAUFORT ARPT FAIR 63 63 100 SW3 29.93R HILTON HEAD IS N/A N/A N/A N/A SW5 29.96R GEORGETOWN NOT AVBL WALTERBORO PTCLDY 59 N/A N/A CALM 29.94R ORANGEBURG CLEAR 60 52 74 CALM 29.93R BARNWELL FAIR 59 52 77 W3 29.95R AIKEN FAIR 61 52 72 NW6 30.00R MANNING FAIR 61 61 100 CALM 29.92S KINGSTREE NOT AVBL COLUMBIA CLEAR 67 47 48 N6 29.94R SUMTER PTCLDY 66 51 59 NW9 29.92R FLORENCE CLOUDY 66 50 56 N12 29.91R MYRTLE BEACH NOT AVBL N MYRTLE BEACH MOCLDY 64 57 78 CALM 29.90R $$ GAZ063-065-086>088-099>101-113>116-118-119-134-136>141-150-220300- ...GEORGIA... CITY SKY/WX TMP DP RH WIND PRES REMARKS SAVANNAH ARPT CLEAR 64 57 78 W3 29.95R HUNTER AAF CLEAR 62 58 84 W7 29.93R FORT STEWART CLEAR 61 55 80 CALM 29.95R STATESBORO NOT AVBL SYLVANIA CLEAR 62 58 88 CALM 29.96R CLAXTON FAIR 57 57 100 CALM 29.97R THOMSON CLEAR 63 55 74 NW6 30.02R AUGUSTA-BUSH CLEAR 67 48 50 NW10 29.95R AUGUSTA-DANIEL CLEAR 67 49 52 NW9 29.96R SWAINSBORO FAIR 59 54 82 MISG 29.98R FOG VIDALIA CLEAR 61 54 77 CALM 29.97R ALMA CLEAR 59 55 87 CALM 29.97R WAYCROSS CLEAR 62 59 90 CALM 29.98R JESUP FAIR 64 59 82 NW5 29.97R BRUNSWICK CLEAR 61 59 94 CALM 29.97R SAINT SIMONS CLEAR 65 61 87 CALM 29.96R $$ SCZ027-028-034-036>038-045-046-048>050-GAZ119-141-220300- ...LAKE AND SUPPLEMENTAL COASTAL OBSERVATIONS... STATION/POSITION TIME TEMP WIND PRES WAVE SWELL AIR SEA DIR/SP/G HT/PER HT/PER/DIR (UTC) (F) (DEG/KT/KT) (MB) (FT/S) (FT/S/D) UPR LAKE MARION NOT AVBL WINYAH BAY 0200 65 280/ 1 1012.0S LAKE MURRAY 0100 66 330/ 3/ 6 1012.9R ACE BASIN NERRS 0200 63 CALM 1013.0S FORT PULASKI 0200 69 220/ 4/ 5 1014.3R SAPELO ISLAND NOT AVBL $$ ANZ835-935-AMZ111-154-330-350-352-354-374-450-454-472-220300- ...C-MAN AND BUOY OBSERVATIONS... STATION/POSITION TIME TEMP WIND PRES WAVE SWELL AIR SEA DIR/SP/G HT/PER HT/PER/DIR (UTC) (F) (DEG/KT/KT) (MB) (FT/S) (FT/S/D) FOLLY BEACH CMAN 0200 69 260/ 4/ 5 1013.7R BUOY 41004 0200 76 79 260/ 14/ 17 1012.7R 3/ 9 2/ 9 BUOY 41008 0200 75 76 250/ 8/ 10 1014.0R 1/10 2/260/10 5E ST. MARYS GA 0200 78 N/A 1/10 FRYING PAN BUOY 0200 74 75 250/ 14/ 17 1013.0R 2/ 9 2/ 80/ 9 BUOY 41025 0200 72 270/ 19/ 23 1010.2F 4/ 6 2/110/10 CAPE LOOKOUT NC 0200 71 260/ 11/ 13 1011.3R BUOY 41002 0052 78 80 240/ 10/ 12 1012.7 3/ 5 3/150/ 5 BUOY 41010 0200 77 80 220/ 8/ 10 1014.4R 2/ 9 2/ 70/ 9 BUOY 41012 NOT AVBL ST AUGUSTINE FL 0200 72 260/ 4/ 4 1014.9R CAPERS NEARSHORE NOT AVBL FRIPP NEARSHORE NOT AVBL $$

USA.gov is the U.S. government's official web portal to all federal, state and local government web resources and services.